Location: ???????
(55.4362°N, 38.1183°E)
Time: 02:05:31
(UTC+00:00)

METEOR M2 - Pass Details

Date: 30 November 2021
Orbit: 818 x 827 km, 98.4° (Epoch: 28 January)

Event Time Altitude Azimuth Distance (km) Brightness Sun altitude
Rises 15:38:45 0° 162° (SSE) 3,358 ? -20.9°
Reaches altitude 10° 15:41:05 10° 163° (SSE) 2,428 ? -21.2°
Maximum altitude 15:46:29 88° 254° (WSW) 836 ? -22.0°
Drops below altitude 10° 15:51:55 10° 344° (NNW) 2,441 ? -22.7°
Sets 15:54:17 0° 345° (NNW) 3,377 ? -23.1°
